date,time,SUV Intensity [MED/Hr],UV Index,Daily total [MED],Since Last [MED]
18/05/2022,00:08:10,0.000,0.0,0.0,0.0
18/05/2022,00:09:12,-0.001,0.0,0.0,0.0
18/05/2022,00:10:11,0.000,0.0,0.0,0.0
18/05/2022,00:11:12,0.000,0.0,0.0,0.0
18/05/2022,00:12:10,0.000,0.0,0.0,0.0
18/05/2022,00:13:03,0.001,0.0,0.0,0.0
18/05/2022,00:14:13,0.001,0.0,0.0,0.0
18/05/2022,00:15:11,0.001,0.0,0.0,0.0
18/05/2022,00:17:12,0.001,0.0,0.0,0.0
18/05/2022,00:18:11,0.000,0.0,0.0,0.0
18/05/2022,00:19:12,-0.000,0.0,0.0,0.0
18/05/2022,00:21:21,0.000,0.0,0.0,0.0
18/05/2022,00:23:12,-0.001,0.0,0.0,0.0
18/05/2022,00:24:11,0.001,0.0,0.0,0.0
18/05/2022,00:25:11,0.000,0.0,0.0,0.0
18/05/2022,00:26:11,0.001,0.0,0.0,0.0
18/05/2022,00:27:12,0.000,0.0,0.0,0.0
18/05/2022,00:28:11,0.000,0.0,0.0,0.0
18/05/2022,00:29:11,0.000,0.0,0.0,0.0
18/05/2022,00:30:11,0.000,0.0,0.0,0.0
18/05/2022,00:31:12,0.000,0.0,0.0,0.0
18/05/2022,00:33:12,0.000,0.0,0.0,0.0
18/05/2022,00:34:11,-0.000,0.0,0.0,0.0
18/05/2022,00:35:11,0.001,0.0,0.0,0.0
18/05/2022,00:36:11,0.000,0.0,0.0,0.0
18/05/2022,00:37:12,0.001,0.0,0.0,0.0
18/05/2022,00:38:10,0.000,0.0,0.0,0.0
18/05/2022,00:39:12,0.000,0.0,0.0,0.0
18/05/2022,00:40:11,0.000,0.0,0.0,0.0
18/05/2022,00:41:12,0.001,0.0,0.0,0.0
18/05/2022,00:42:11,0.000,0.0,0.0,0.0
18/05/2022,00:43:13,0.000,0.0,0.0,0.0
18/05/2022,00:44:11,-0.001,0.0,0.0,0.0
18/05/2022,00:45:12,0.000,0.0,0.0,0.0
18/05/2022,00:46:12,0.000,0.0,0.0,0.0
18/05/2022,00:48:13,-0.000,0.0,0.0,0.0
18/05/2022,00:49:18,0.000,0.0,0.0,0.0
18/05/2022,00:51:13,0.001,0.0,0.0,0.0
18/05/2022,00:53:12,0.001,0.0,0.0,0.0
18/05/2022,00:55:12,0.001,0.0,0.0,0.0
18/05/2022,00:56:11,0.000,0.0,0.0,0.0
18/05/2022,00:57:12,0.001,0.0,0.0,0.0
18/05/2022,00:58:10,0.001,0.0,0.0,0.0
18/05/2022,00:59:12,0.001,0.0,0.0,0.0
18/05/2022,01:00:10,-0.001,0.0,0.0,0.0
18/05/2022,01:01:21,0.001,0.0,0.0,0.0
18/05/2022,01:03:13,0.000,0.0,0.0,0.0
18/05/2022,01:04:11,0.001,0.0,0.0,0.0
18/05/2022,01:05:12,0.001,0.0,0.0,0.0
18/05/2022,01:06:12,0.001,0.0,0.0,0.0
18/05/2022,01:07:10,0.001,0.0,0.0,0.0
18/05/2022,01:08:11,0.001,0.0,0.0,0.0
18/05/2022,01:09:12,-0.000,0.0,0.0,0.0
18/05/2022,01:10:10,0.001,0.0,0.0,0.0
18/05/2022,01:11:20,0.002,0.0,0.0,0.0
18/05/2022,01:13:13,0.000,0.0,0.0,0.0
18/05/2022,01:14:11,0.002,0.0,0.0,0.0
18/05/2022,01:15:12,0.001,0.0,0.0,0.0
18/05/2022,01:16:11,0.001,0.0,0.0,0.0
18/05/2022,01:17:14,0.000,0.0,0.0,0.0
18/05/2022,01:19:12,0.001,0.0,0.0,0.0
18/05/2022,01:21:13,-0.000,0.0,0.0,0.0
18/05/2022,01:23:12,0.001,0.0,0.0,0.0
18/05/2022,01:25:13,0.001,0.0,0.0,0.0
18/05/2022,01:26:11,0.001,0.0,0.0,0.0
18/05/2022,01:27:11,0.001,0.0,0.0,0.0
18/05/2022,01:28:12,0.001,0.0,0.0,0.0
18/05/2022,01:29:19,0.001,0.0,0.0,0.0
18/05/2022,01:31:12,-0.000,0.0,0.0,0.0
18/05/2022,01:32:10,0.001,0.0,0.0,0.0
18/05/2022,01:33:11,0.001,0.0,0.0,0.0
18/05/2022,01:35:21,0.001,0.0,0.0,0.0
18/05/2022,01:37:13,0.001,0.0,0.0,0.0
18/05/2022,01:38:11,0.001,0.0,0.0,0.0
18/05/2022,01:39:11,0.001,0.0,0.0,0.0
18/05/2022,01:41:12,-0.000,0.0,0.0,0.0
18/05/2022,01:42:11,0.001,0.0,0.0,0.0
18/05/2022,01:43:11,0.001,0.0,0.0,0.0
18/05/2022,01:44:12,0.002,0.0,0.0,0.0
18/05/2022,01:45:12,0.001,0.0,0.0,0.0
18/05/2022,01:46:11,0.000,0.0,0.0,0.0
18/05/2022,01:47:12,0.001,0.0,0.0,0.0
18/05/2022,01:48:11,0.001,0.0,0.0,0.0
18/05/2022,01:49:12,0.001,0.0,0.0,0.0
18/05/2022,01:51:21,0.001,0.0,0.0,0.0
18/05/2022,01:53:12,0.000,0.0,0.0,0.0
18/05/2022,01:54:11,0.000,0.0,0.0,0.0
18/05/2022,01:56:12,0.002,0.0,0.0,0.0
18/05/2022,01:57:11,0.001,0.0,0.0,0.0
18/05/2022,01:58:12,0.000,0.0,0.0,0.0
18/05/2022,01:59:11,0.001,0.0,0.0,0.0
18/05/2022,02:00:11,0.001,0.0,0.0,0.0
18/05/2022,02:01:12,0.002,0.0,0.0,0.0
18/05/2022,02:02:11,0.001,0.0,0.0,0.0
18/05/2022,02:03:12,0.000,0.0,0.0,0.0
18/05/2022,02:04:12,0.001,0.0,0.0,0.0
18/05/2022,02:05:11,0.001,0.0,0.0,0.0
18/05/2022,02:07:12,0.001,0.0,0.0,0.0
18/05/2022,02:08:19,0.001,0.0,0.0,0.0
18/05/2022,02:10:13,-0.001,0.0,0.0,0.0
18/05/2022,02:12:12,0.001,0.0,0.0,0.0
18/05/2022,02:13:11,0.000,0.0,0.0,0.0
18/05/2022,02:14:11,0.000,0.0,0.0,0.0
18/05/2022,02:15:12,0.002,0.0,0.0,0.0
18/05/2022,02:16:10,0.002,0.0,0.0,0.0
18/05/2022,02:17:12,0.001,0.0,0.0,0.0
18/05/2022,02:18:10,0.002,0.0,0.0,0.0
18/05/2022,02:19:12,0.001,0.0,0.0,0.0
18/05/2022,02:20:12,0.001,0.0,0.0,0.0
18/05/2022,02:22:21,0.001,0.0,0.0,0.0
18/05/2022,02:24:13,0.002,0.0,0.0,0.0
18/05/2022,02:25:11,0.001,0.0,0.0,0.0
18/05/2022,02:26:12,0.001,0.0,0.0,0.0
18/05/2022,02:27:12,0.001,0.0,0.0,0.0
18/05/2022,02:28:12,0.001,0.0,0.0,0.0
18/05/2022,02:29:10,0.001,0.0,0.0,0.0
18/05/2022,02:30:12,0.001,0.0,0.0,0.0
18/05/2022,02:31:10,0.001,0.0,0.0,0.0
18/05/2022,02:32:12,0.001,0.0,0.0,0.0
18/05/2022,02:33:12,0.001,0.0,0.0,0.0
18/05/2022,02:34:12,0.002,0.0,0.0,0.0
18/05/2022,02:35:12,0.001,0.0,0.0,0.0
18/05/2022,02:36:10,0.001,0.0,0.0,0.0
18/05/2022,02:38:12,0.001,0.0,0.0,0.0
18/05/2022,02:39:19,0.001,0.0,0.0,0.0
18/05/2022,02:41:13,0.000,0.0,0.0,0.0
18/05/2022,02:42:10,0.000,0.0,0.0,0.0
18/05/2022,02:43:12,0.001,0.0,0.0,0.0
18/05/2022,02:44:10,0.001,0.0,0.0,0.0
18/05/2022,02:45:12,0.000,0.0,0.0,0.0
18/05/2022,02:46:12,0.000,0.0,0.0,0.0
18/05/2022,02:47:10,0.000,0.0,0.0,0.0
18/05/2022,02:48:12,0.001,0.0,0.0,0.0
18/05/2022,02:49:20,0.002,0.0,0.0,0.0
18/05/2022,02:51:13,0.000,0.0,0.0,0.0
18/05/2022,02:53:13,0.001,0.0,0.0,0.0
18/05/2022,02:54:12,0.001,0.0,0.0,0.0
18/05/2022,02:56:13,0.000,0.0,0.0,0.0
18/05/2022,02:57:11,0.001,0.0,0.0,0.0
18/05/2022,02:58:12,0.002,0.0,0.0,0.0
18/05/2022,02:59:11,0.001,0.0,0.0,0.0
18/05/2022,03:00:11,0.001,0.0,0.0,0.0
18/05/2022,03:01:12,0.001,0.0,0.0,0.0
18/05/2022,03:02:12,0.001,0.0,0.0,0.0
18/05/2022,03:03:10,0.000,0.0,0.0,0.0
18/05/2022,03:04:20,0.001,0.0,0.0,0.0
18/05/2022,03:06:12,0.001,0.0,0.0,0.0
18/05/2022,03:07:19,0.002,0.0,0.0,0.0
18/05/2022,03:09:13,0.002,0.0,0.0,0.0
18/05/2022,03:10:11,0.001,0.0,0.0,0.0
18/05/2022,03:11:12,0.001,0.0,0.0,0.0
18/05/2022,03:12:12,0.001,0.0,0.0,0.0
18/05/2022,03:14:13,0.001,0.0,0.0,0.0
18/05/2022,03:15:11,0.000,0.0,0.0,0.0
18/05/2022,03:16:12,0.001,0.0,0.0,0.0
18/05/2022,03:17:12,0.002,0.0,0.0,0.0
18/05/2022,03:18:10,0.001,0.0,0.0,0.0
18/05/2022,03:19:12,0.002,0.0,0.0,0.0
18/05/2022,03:20:20,0.001,0.0,0.0,0.0
18/05/2022,03:22:13,0.001,0.0,0.0,0.0
18/05/2022,03:23:11,0.001,0.0,0.0,0.0
18/05/2022,03:25:13,0.001,0.0,0.0,0.0
18/05/2022,03:26:11,0.001,0.0,0.0,0.0
18/05/2022,03:27:12,0.002,0.0,0.0,0.0
18/05/2022,03:28:12,0.001,0.0,0.0,0.0
18/05/2022,03:30:12,0.001,0.0,0.0,0.0
18/05/2022,03:31:11,0.001,0.0,0.0,0.0
18/05/2022,03:32:12,0.001,0.0,0.0,0.0
18/05/2022,03:33:12,0.001,0.0,0.0,0.0
18/05/2022,03:34:12,0.002,0.0,0.0,0.0
18/05/2022,03:35:12,0.001,0.0,0.0,0.0
18/05/2022,03:36:21,0.001,0.0,0.0,0.0
18/05/2022,03:38:13,0.002,0.0,0.0,0.0
18/05/2022,03:40:13,0.002,0.0,0.0,0.0
18/05/2022,03:41:11,0.002,0.0,0.0,0.0
18/05/2022,03:42:12,0.001,0.0,0.0,0.0
18/05/2022,03:43:11,0.001,0.0,0.0,0.0
18/05/2022,03:44:12,0.002,0.0,0.0,0.0
18/05/2022,03:45:11,0.000,0.0,0.0,0.0
18/05/2022,03:46:12,0.003,0.0,0.0,0.0
18/05/2022,03:47:12,0.001,0.0,0.0,0.0
18/05/2022,03:48:20,0.002,0.0,0.0,0.0
18/05/2022,03:50:13,0.002,0.0,0.0,0.0
18/05/2022,03:51:20,0.002,0.0,0.0,0.0
18/05/2022,03:53:13,0.002,0.0,0.0,0.0
18/05/2022,03:54:11,0.002,0.0,0.0,0.0
18/05/2022,03:56:13,0.002,0.0,0.0,0.0
18/05/2022,03:57:12,0.002,0.0,0.0,0.0
18/05/2022,03:58:12,0.001,0.0,0.0,0.0
18/05/2022,03:59:12,0.002,0.0,0.0,0.0
18/05/2022,04:00:12,0.001,0.0,0.0,0.0
18/05/2022,04:02:21,0.003,0.0,0.0,0.0
18/05/2022,04:04:13,0.003,0.0,0.0,0.0
18/05/2022,04:05:12,0.003,0.0,0.0,0.0
18/05/2022,04:06:12,0.003,0.0,0.0,0.0
18/05/2022,04:07:20,0.003,0.0,0.0,0.0
18/05/2022,04:09:13,0.003,0.0,0.0,0.0
18/05/2022,04:11:12,0.003,0.0,0.0,0.0
18/05/2022,04:12:12,0.003,0.0,0.0,0.0
18/05/2022,04:13:12,0.003,0.0,0.0,0.0
18/05/2022,04:14:11,0.004,0.0,0.0,0.0
18/05/2022,04:15:12,0.003,0.0,0.0,0.0
18/05/2022,04:16:11,0.004,0.0,0.0,0.0
18/05/2022,04:17:12,0.005,0.0,0.0,0.0
18/05/2022,04:18:12,0.004,0.0,0.0,0.0
18/05/2022,04:19:12,0.004,0.0,0.0,0.0
18/05/2022,04:20:10,0.004,0.0,0.0,0.0
18/05/2022,04:21:12,0.005,0.0,0.0,0.0
18/05/2022,04:22:22,0.005,0.0,0.0,0.0
18/05/2022,04:24:21,0.005,0.0,0.0,0.0
18/05/2022,04:26:21,0.006,0.0,0.0,0.0
18/05/2022,04:28:21,0.006,0.0,0.0,0.0
18/05/2022,04:30:12,0.007,0.0,0.0,0.0
18/05/2022,04:31:11,0.007,0.0,0.0,0.0
18/05/2022,04:32:20,0.007,0.0,0.001,0.001
18/05/2022,04:34:12,0.008,0.0,0.001,0.0
18/05/2022,04:35:19,0.008,0.0,0.001,0.0
18/05/2022,04:37:14,0.009,0.0,0.001,0.0
18/05/2022,04:39:21,0.010,0.0,0.002,0.001
18/05/2022,04:41:13,0.010,0.0,0.002,0.0
18/05/2022,04:43:13,0.011,0.0,0.002,0.0
18/05/2022,04:44:11,0.011,0.0,0.002,0.0
18/05/2022,04:45:12,0.012,0.0,0.003,0.001
18/05/2022,04:46:11,0.012,0.0,0.003,0.0
18/05/2022,04:47:12,0.013,0.0,0.003,0.0
18/05/2022,04:48:20,0.013,0.0,0.003,0.0
18/05/2022,04:50:12,0.014,0.0,0.004,0.001
18/05/2022,04:51:21,0.014,0.0,0.004,0.0
18/05/2022,04:53:12,0.015,0.0,0.004,0.0
18/05/2022,04:54:11,0.016,0.0,0.005,0.001
18/05/2022,04:55:12,0.017,0.0,0.005,0.0
18/05/2022,04:56:12,0.017,0.0,0.005,0.0
18/05/2022,04:57:12,0.017,0.0,0.005,0.0
18/05/2022,04:59:12,0.018,0.0,0.006,0.001
18/05/2022,05:00:11,0.019,0.0,0.006,0.0
18/05/2022,05:01:12,0.020,0.0,0.007,0.001
18/05/2022,05:02:12,0.020,0.0,0.007,0.0
18/05/2022,05:03:11,0.021,0.0,0.007,0.0
18/05/2022,05:04:12,0.022,0.0,0.008,0.001
18/05/2022,05:06:12,0.023,0.0,0.008,0.0
18/05/2022,05:07:13,0.024,0.0,0.009,0.001
18/05/2022,05:08:12,0.024,0.0,0.009,0.0
18/05/2022,05:09:20,0.025,0.0,0.01,0.001
18/05/2022,05:11:13,0.027,0.0,0.01,0.0
18/05/2022,05:12:12,0.027,0.0,0.011,0.001
18/05/2022,05:13:12,0.028,0.0,0.011,0.0
18/05/2022,05:15:12,0.030,0.0,0.012,0.001
18/05/2022,05:16:11,0.031,0.0,0.013,0.001
18/05/2022,05:17:12,0.032,0.0,0.013,0.0
18/05/2022,05:18:11,0.033,0.0,0.014,0.001
18/05/2022,05:19:20,0.034,0.0,0.015,0.001
18/05/2022,05:21:13,0.034,0.0,0.016,0.001
18/05/2022,05:22:11,0.036,0.0,0.016,0.0
18/05/2022,05:23:12,0.037,0.0,0.017,0.001
18/05/2022,05:24:11,0.039,0.0,0.017,0.0
18/05/2022,05:25:13,0.040,0.0,0.018,0.001
18/05/2022,05:26:12,0.042,0.0,0.019,0.001
18/05/2022,05:27:12,0.043,0.0,0.019,0.0
18/05/2022,05:28:11,0.042,0.0,0.02,0.001
18/05/2022,05:29:12,0.044,0.0,0.021,0.001
18/05/2022,05:31:13,0.047,0.0,0.022,0.001
18/05/2022,05:32:12,0.047,0.0,0.023,0.001
18/05/2022,05:33:12,0.049,0.0,0.024,0.001
18/05/2022,05:34:11,0.050,0.0,0.025,0.001
18/05/2022,05:35:12,0.052,0.0,0.026,0.001
18/05/2022,05:37:13,0.054,0.0,0.028,0.002
18/05/2022,05:38:11,0.055,0.0,0.028,0.0
18/05/2022,05:39:12,0.057,0.0,0.029,0.001
18/05/2022,05:40:21,0.059,0.0,0.03,0.001
18/05/2022,05:42:13,0.061,0.0,0.032,0.002
18/05/2022,05:43:11,0.062,0.0,0.033,0.001
18/05/2022,05:44:12,0.064,0.0,0.034,0.001
18/05/2022,05:45:12,0.066,0.0,0.035,0.001
18/05/2022,05:47:13,0.070,0.0,0.038,0.003
18/05/2022,05:48:19,0.071,0.0,0.039,0.001
18/05/2022,05:50:13,0.074,0.0,0.041,0.002
18/05/2022,05:52:13,0.078,0.0,0.044,0.003
18/05/2022,05:53:11,0.081,0.0,0.045,0.001
18/05/2022,05:54:12,0.081,0.0,0.046,0.001
18/05/2022,05:55:12,0.083,0.0,0.048,0.002
18/05/2022,05:56:12,0.084,0.0,0.049,0.001
18/05/2022,05:57:11,0.087,0.0,0.051,0.002
18/05/2022,05:58:12,0.088,0.0,0.052,0.001
18/05/2022,05:59:12,0.089,0.0,0.054,0.002
18/05/2022,06:00:12,0.091,0.0,0.055,0.001
18/05/2022,06:01:13,0.093,0.0,0.057,0.002
18/05/2022,06:03:13,0.099,0.0,0.06,0.003
18/05/2022,06:04:12,0.102,0.0,0.062,0.002
18/05/2022,06:05:12,0.106,0.0,0.063,0.001
18/05/2022,06:06:12,0.108,0.0,0.065,0.002
18/05/2022,06:07:11,0.110,0.0,0.067,0.002
18/05/2022,06:08:12,0.114,0.0,0.069,0.002
18/05/2022,06:09:12,0.116,0.0,0.071,0.002
18/05/2022,06:10:12,0.120,0.0,0.073,0.002
18/05/2022,06:11:11,0.121,0.0,0.075,0.002
18/05/2022,06:12:12,0.123,0.0,0.077,0.002
18/05/2022,06:13:12,0.126,0.0,0.079,0.002
18/05/2022,06:14:12,0.129,0.0,0.081,0.002
18/05/2022,06:15:12,0.131,0.0,0.083,0.002
18/05/2022,06:16:12,0.134,0.0,0.085,0.002
18/05/2022,06:17:12,0.135,0.0,0.087,0.002
18/05/2022,06:19:13,0.142,0.0,0.092,0.005
18/05/2022,06:20:12,0.143,0.0,0.094,0.002
18/05/2022,06:21:12,0.148,0.0,0.097,0.003
18/05/2022,06:22:20,0.150,0.0,0.1,0.003
18/05/2022,06:24:13,0.155,0.0,0.104,0.004
18/05/2022,06:25:11,0.158,0.0,0.107,0.003
18/05/2022,06:26:12,0.157,0.0,0.11,0.003
18/05/2022,06:27:13,0.164,0.0,0.112,0.002
18/05/2022,06:28:12,0.167,0.0,0.115,0.003
18/05/2022,06:29:12,0.165,0.0,0.118,0.003
18/05/2022,06:30:13,0.164,0.0,0.121,0.003
18/05/2022,06:31:11,0.166,0.0,0.123,0.002
18/05/2022,06:32:12,0.170,0.0,0.126,0.003
18/05/2022,06:33:12,0.171,0.0,0.129,0.003
18/05/2022,06:35:12,0.175,0.0,0.135,0.006
18/05/2022,06:36:11,0.176,0.0,0.138,0.003
18/05/2022,06:37:12,0.180,0.0,0.141,0.003
18/05/2022,06:38:12,0.200,0.0,0.144,0.003
18/05/2022,06:39:13,0.202,0.0,0.147,0.003
18/05/2022,06:40:11,0.205,0.0,0.15,0.003
18/05/2022,06:41:12,0.194,0.0,0.154,0.004
18/05/2022,06:42:13,0.202,0.0,0.157,0.003
18/05/2022,06:43:11,0.213,0.0,0.161,0.004
18/05/2022,06:44:12,0.221,1.0,0.164,0.003
18/05/2022,06:45:15,0.224,1.0,0.168,0.004
18/05/2022,06:47:13,0.232,1.0,0.176,0.008
18/05/2022,06:48:11,0.235,1.0,0.179,0.003
18/05/2022,06:49:12,0.222,1.0,0.183,0.004
18/05/2022,06:51:13,0.235,1.0,0.191,0.008
18/05/2022,06:52:13,0.232,1.0,0.195,0.004
18/05/2022,06:54:13,0.242,1.0,0.203,0.008
18/05/2022,06:55:11,0.248,1.0,0.207,0.004
18/05/2022,06:56:12,0.251,1.0,0.211,0.004
18/05/2022,06:57:11,0.261,1.0,0.215,0.004
18/05/2022,06:58:12,0.267,1.0,0.22,0.005
18/05/2022,06:59:13,0.274,1.0,0.224,0.004
18/05/2022,07:00:12,0.280,1.0,0.229,0.005
18/05/2022,07:01:13,0.302,1.0,0.234,0.005
18/05/2022,07:02:11,0.299,1.0,0.239,0.005
18/05/2022,07:03:21,0.299,1.0,0.244,0.005
18/05/2022,07:05:13,0.322,1.0,0.254,0.01
18/05/2022,07:07:13,0.352,1.0,0.265,0.011
18/05/2022,07:08:11,0.348,1.0,0.271,0.006
18/05/2022,07:09:12,0.347,1.0,0.277,0.006
18/05/2022,07:10:12,0.329,1.0,0.282,0.005
18/05/2022,07:11:12,0.320,1.0,0.288,0.006
18/05/2022,07:12:13,0.326,1.0,0.293,0.005
18/05/2022,07:13:19,0.306,1.0,0.299,0.006
18/05/2022,07:15:13,0.308,1.0,0.309,0.01
18/05/2022,07:16:27,0.306,1.0,0.315,0.006
18/05/2022,07:18:13,0.323,1.0,0.325,0.01
18/05/2022,07:19:20,0.338,1.0,0.331,0.006
18/05/2022,07:21:13,0.327,1.0,0.341,0.01
18/05/2022,07:23:14,0.340,1.0,0.352,0.011
18/05/2022,07:25:13,0.333,1.0,0.363,0.011
18/05/2022,07:26:11,0.334,1.0,0.369,0.006
18/05/2022,07:27:12,0.333,1.0,0.374,0.005
18/05/2022,07:28:12,0.335,1.0,0.38,0.006
18/05/2022,07:29:19,0.336,1.0,0.386,0.006
18/05/2022,07:31:13,0.348,1.0,0.397,0.011
18/05/2022,07:32:20,0.356,1.0,0.404,0.007
18/05/2022,07:34:14,0.367,1.0,0.415,0.011
18/05/2022,07:36:13,0.381,1.0,0.427,0.012
18/05/2022,07:37:20,0.396,1.0,0.435,0.008
18/05/2022,07:39:21,0.418,1.0,0.448,0.013
18/05/2022,07:41:13,0.443,1.0,0.462,0.014
18/05/2022,07:42:11,0.441,1.0,0.469,0.007
18/05/2022,07:43:12,0.450,1.0,0.476,0.007
18/05/2022,07:44:12,0.432,1.0,0.484,0.008
18/05/2022,07:45:12,0.437,1.0,0.491,0.007
18/05/2022,07:46:13,0.442,1.0,0.498,0.007
18/05/2022,07:47:11,0.447,1.0,0.506,0.008
18/05/2022,07:48:13,0.446,1.0,0.513,0.007
18/05/2022,07:49:13,0.461,1.0,0.521,0.008
18/05/2022,07:50:21,0.462,1.0,0.53,0.009
18/05/2022,07:52:21,0.459,1.0,0.545,0.015
18/05/2022,07:54:21,0.441,1.0,0.559,0.014
18/05/2022,07:56:13,0.430,1.0,0.573,0.014
18/05/2022,07:58:13,0.425,1.0,0.587,0.014
18/05/2022,08:00:13,0.448,1.0,0.602,0.015
18/05/2022,08:01:11,0.454,1.0,0.609,0.007
18/05/2022,08:02:12,0.456,1.0,0.617,0.008
18/05/2022,08:03:12,0.467,1.0,0.625,0.008
18/05/2022,08:04:11,0.487,1.0,0.632,0.007
18/05/2022,08:05:12,0.505,1.0,0.641,0.009
18/05/2022,08:06:12,0.515,1.0,0.649,0.008
18/05/2022,08:07:13,0.524,1.0,0.658,0.009
18/05/2022,08:08:12,0.531,1.0,0.667,0.009
18/05/2022,08:10:13,0.587,1.0,0.685,0.018
18/05/2022,08:11:13,0.603,1.0,0.695,0.01
18/05/2022,08:12:13,0.613,1.0,0.705,0.01
18/05/2022,08:13:12,0.682,2.0,0.716,0.011
18/05/2022,08:14:13,0.672,2.0,0.728,0.012
18/05/2022,08:15:12,0.627,1.0,0.738,0.01
18/05/2022,08:16:13,0.624,1.0,0.749,0.011
18/05/2022,08:17:11,0.615,1.0,0.759,0.01
18/05/2022,08:18:12,0.610,1.0,0.769,0.01
18/05/2022,08:19:12,0.613,1.0,0.779,0.01
18/05/2022,08:20:12,0.613,1.0,0.789,0.01
18/05/2022,08:21:14,0.598,1.0,0.799,0.01
18/05/2022,08:23:13,0.594,1.0,0.82,0.021
18/05/2022,08:25:13,0.610,1.0,0.84,0.02
18/05/2022,08:26:13,0.626,1.0,0.85,0.01
18/05/2022,08:27:11,0.737,2.0,0.861,0.011
18/05/2022,08:28:12,0.686,2.0,0.874,0.013
18/05/2022,08:29:12,0.668,2.0,0.884,0.01
18/05/2022,08:30:13,0.725,2.0,0.896,0.012
18/05/2022,08:31:11,0.678,2.0,0.907,0.011
18/05/2022,08:32:29,0.675,2.0,0.922,0.015
18/05/2022,08:34:13,0.754,2.0,0.942,0.02
18/05/2022,08:35:11,0.742,2.0,0.954,0.012
18/05/2022,08:36:24,0.805,2.0,0.969,0.015
18/05/2022,08:38:13,0.885,2.0,0.993,0.024
18/05/2022,08:39:13,0.893,2.0,1.008,0.015
18/05/2022,08:41:13,0.810,2.0,1.036,0.028
18/05/2022,08:42:13,0.731,2.0,1.049,0.013
18/05/2022,08:43:12,0.738,2.0,1.061,0.012
18/05/2022,08:44:11,0.858,2.0,1.074,0.013
18/05/2022,08:46:13,0.862,2.0,1.103,0.029
18/05/2022,08:47:12,0.922,2.0,1.118,0.015
18/05/2022,08:48:12,0.885,2.0,1.133,0.015
18/05/2022,08:49:12,0.888,2.0,1.148,0.015
18/05/2022,08:50:13,0.852,2.0,1.162,0.014
18/05/2022,08:55:25,0.782,2.0,1.237,0.075
18/05/2022,08:56:13,0.984,2.0,1.248,0.011
18/05/2022,08:57:12,0.894,2.0,1.264,0.016
18/05/2022,08:58:13,0.950,2.0,1.279,0.015
18/05/2022,08:59:11,1.017,2.0,1.293,0.014
18/05/2022,09:01:14,1.173,3.0,1.331,0.038
18/05/2022,09:02:12,1.192,3.0,1.35,0.019
18/05/2022,09:03:14,1.110,3.0,1.37,0.02
18/05/2022,09:05:13,1.127,3.0,1.407,0.037
18/05/2022,09:06:11,1.164,3.0,1.425,0.018
18/05/2022,09:07:13,1.207,3.0,1.446,0.021
18/05/2022,09:08:11,1.152,3.0,1.465,0.019
18/05/2022,09:09:12,1.146,3.0,1.484,0.019
18/05/2022,09:10:21,1.131,3.0,1.506,0.022
18/05/2022,09:12:13,1.078,2.0,1.54,0.034
18/05/2022,09:14:22,1.203,3.0,1.58,0.04
18/05/2022,09:16:13,1.275,3.0,1.617,0.037
18/05/2022,09:17:11,1.287,3.0,1.639,0.022
18/05/2022,09:18:14,1.130,3.0,1.659,0.02
18/05/2022,09:20:13,1.435,3.0,1.703,0.044
18/05/2022,09:21:12,1.392,3.0,1.726,0.023
18/05/2022,09:22:14,1.277,3.0,1.749,0.023
18/05/2022,09:24:13,1.154,3.0,1.788,0.039
18/05/2022,09:25:11,1.160,3.0,1.806,0.018
18/05/2022,09:26:20,1.292,3.0,1.83,0.024
18/05/2022,09:28:13,1.170,3.0,1.865,0.035
18/05/2022,09:30:13,1.388,3.0,1.908,0.043
18/05/2022,09:32:13,1.318,3.0,1.953,0.045
18/05/2022,09:33:12,1.349,3.0,1.975,0.022
18/05/2022,09:34:12,1.354,3.0,1.997,0.022
18/05/2022,09:35:11,1.335,3.0,2.019,0.022
18/05/2022,09:36:13,1.344,3.0,2.042,0.023
18/05/2022,09:37:12,1.358,3.0,2.065,0.023
18/05/2022,09:38:21,1.360,3.0,2.091,0.026
18/05/2022,09:40:13,1.121,3.0,2.128,0.037
18/05/2022,09:41:12,1.434,3.0,2.147,0.019
18/05/2022,09:42:13,1.510,3.0,2.172,0.025
18/05/2022,09:43:11,1.072,2.0,2.194,0.022
18/05/2022,09:44:13,1.429,3.0,2.216,0.022
18/05/2022,09:46:13,1.115,3.0,2.258,0.042
18/05/2022,09:48:13,1.392,3.0,2.292,0.034
18/05/2022,09:49:12,1.033,2.0,2.312,0.02
18/05/2022,09:50:21,1.532,4.0,2.334,0.022
18/05/2022,09:52:13,1.540,4.0,2.376,0.042
18/05/2022,09:53:11,1.506,3.0,2.401,0.025
18/05/2022,09:54:13,1.318,3.0,2.423,0.022
18/05/2022,09:55:02,1.581,4.0,2.444,0.021
18/05/2022,09:56:14,1.442,3.0,2.475,0.031
18/05/2022,09:57:12,1.150,3.0,2.495,0.02
18/05/2022,09:58:12,1.114,3.0,2.515,0.02
18/05/2022,09:59:12,1.225,3.0,2.534,0.019
18/05/2022,10:01:13,1.626,4.0,2.581,0.047
18/05/2022,10:02:12,1.660,4.0,2.607,0.026
18/05/2022,10:04:13,1.538,4.0,2.663,0.056
18/05/2022,10:05:12,1.671,4.0,2.689,0.026
18/05/2022,10:06:21,1.580,4.0,2.719,0.03
18/05/2022,10:08:13,1.735,4.0,2.77,0.051
18/05/2022,10:09:12,1.745,4.0,2.798,0.028
18/05/2022,10:10:13,1.767,4.0,2.828,0.03
18/05/2022,10:11:11,1.790,4.0,2.857,0.029
18/05/2022,10:12:14,1.824,4.0,2.888,0.031
18/05/2022,10:14:14,1.681,4.0,2.947,0.059
18/05/2022,10:15:12,1.250,3.0,2.974,0.027
18/05/2022,10:17:21,1.759,4.0,3.034,0.06
18/05/2022,10:19:13,1.835,4.0,3.088,0.054
18/05/2022,10:20:12,1.811,4.0,3.119,0.031
18/05/2022,10:21:12,1.866,4.0,3.149,0.03
18/05/2022,10:22:12,1.850,4.0,3.179,0.03
18/05/2022,10:23:12,1.788,4.0,3.21,0.031
18/05/2022,10:24:11,1.849,4.0,3.24,0.03
18/05/2022,10:25:13,1.884,4.0,3.271,0.031
18/05/2022,10:26:11,1.890,4.0,3.303,0.032
18/05/2022,10:27:12,1.902,4.0,3.334,0.031
18/05/2022,10:28:11,1.890,4.0,3.366,0.032
18/05/2022,10:29:13,1.896,4.0,3.398,0.032
18/05/2022,10:30:11,1.877,4.0,3.429,0.031
18/05/2022,10:31:12,1.225,3.0,3.455,0.026
18/05/2022,10:33:13,1.789,4.0,3.51,0.055
18/05/2022,10:35:13,1.942,4.0,3.571,0.061
18/05/2022,10:36:12,1.963,5.0,3.604,0.033
18/05/2022,10:37:21,2.050,5.0,3.64,0.036
18/05/2022,10:39:13,1.996,5.0,3.703,0.063
18/05/2022,10:40:12,1.979,5.0,3.736,0.033
18/05/2022,10:41:13,1.923,4.0,3.769,0.033
18/05/2022,10:42:13,1.928,4.0,3.801,0.032
18/05/2022,10:43:12,1.883,4.0,3.833,0.032
18/05/2022,10:44:13,1.898,4.0,3.864,0.031
18/05/2022,10:45:11,1.776,4.0,3.895,0.031
18/05/2022,10:46:12,1.746,4.0,3.924,0.029
18/05/2022,10:47:21,1.769,4.0,3.958,0.034
18/05/2022,10:49:13,1.236,3.0,4.008,0.05
18/05/2022,10:51:13,1.425,3.0,4.064,0.056
18/05/2022,10:52:12,1.898,4.0,4.092,0.028
18/05/2022,10:53:13,1.910,4.0,4.125,0.033
18/05/2022,10:54:12,1.989,5.0,4.156,0.031
18/05/2022,10:55:14,1.840,4.0,4.186,0.03
18/05/2022,10:56:12,2.056,5.0,4.218,0.032
18/05/2022,10:57:29,1.959,5.0,4.261,0.043
18/05/2022,10:59:13,1.812,4.0,4.318,0.057
18/05/2022,11:00:11,1.260,3.0,4.341,0.023
18/05/2022,11:01:12,1.266,3.0,4.362,0.021
18/05/2022,11:02:13,1.968,5.0,4.392,0.03
18/05/2022,11:03:12,2.124,5.0,4.426,0.034
18/05/2022,11:05:13,2.129,5.0,4.489,0.063
18/05/2022,11:07:14,1.779,4.0,4.556,0.067
18/05/2022,11:09:21,2.044,5.0,4.628,0.072
18/05/2022,11:11:14,1.296,3.0,4.68,0.052
18/05/2022,11:12:13,1.730,4.0,4.706,0.026
18/05/2022,11:13:13,2.143,5.0,4.742,0.036
18/05/2022,11:14:12,1.272,3.0,4.773,0.031
18/05/2022,11:15:12,1.212,3.0,4.794,0.021
18/05/2022,11:16:13,1.518,3.0,4.816,0.022
18/05/2022,11:17:13,1.315,3.0,4.838,0.022
18/05/2022,11:18:11,1.293,3.0,4.861,0.023
18/05/2022,11:19:13,1.242,3.0,4.882,0.021
18/05/2022,11:21:13,1.593,4.0,4.938,0.056
18/05/2022,11:23:14,1.189,3.0,4.985,0.047
18/05/2022,11:24:21,1.349,3.0,5.007,0.022
18/05/2022,11:26:13,2.130,5.0,5.054,0.047
18/05/2022,11:27:12,1.230,3.0,5.08,0.026
18/05/2022,11:28:13,1.105,3.0,5.1,0.02
18/05/2022,11:29:14,1.018,2.0,5.118,0.018
18/05/2022,11:30:13,1.008,2.0,5.134,0.016
18/05/2022,11:31:13,1.059,2.0,5.151,0.017
18/05/2022,11:32:12,1.154,3.0,5.169,0.018
18/05/2022,11:33:04,2.128,5.0,5.194,0.025
18/05/2022,11:34:14,2.168,5.0,5.236,0.042
18/05/2022,11:36:14,2.228,5.0,5.308,0.072
18/05/2022,11:38:13,2.178,5.0,5.381,0.073
18/05/2022,11:39:20,2.211,5.0,5.422,0.041
18/05/2022,11:41:14,2.164,5.0,5.488,0.066
18/05/2022,11:42:13,2.193,5.0,5.521,0.033
18/05/2022,11:43:12,1.890,4.0,5.554,0.033
18/05/2022,11:44:15,1.325,3.0,5.58,0.026
18/05/2022,11:46:14,1.446,3.0,5.628,0.048
18/05/2022,11:47:13,1.784,4.0,5.655,0.027
18/05/2022,11:48:13,1.440,3.0,5.689,0.034
18/05/2022,11:49:11,2.089,5.0,5.715,0.026
18/05/2022,11:50:13,2.185,5.0,5.751,0.036
18/05/2022,11:52:13,2.241,5.0,5.823,0.072
18/05/2022,11:54:13,2.273,5.0,5.897,0.074
18/05/2022,11:55:12,2.259,5.0,5.935,0.038
18/05/2022,11:56:13,2.255,5.0,5.972,0.037
18/05/2022,11:57:20,2.294,5.0,6.016,0.044
18/05/2022,11:59:13,1.758,4.0,6.086,0.07
18/05/2022,12:00:12,2.047,5.0,6.117,0.031
18/05/2022,12:01:13,1.618,4.0,6.151,0.034
18/05/2022,12:02:13,2.250,5.0,6.186,0.035
18/05/2022,12:03:14,2.209,5.0,6.225,0.039
18/05/2022,12:05:14,2.104,5.0,6.296,0.071
18/05/2022,12:06:12,2.180,5.0,6.331,0.035
18/05/2022,12:08:14,2.201,5.0,6.406,0.075
18/05/2022,12:10:13,2.178,5.0,6.479,0.073
18/05/2022,12:11:12,2.182,5.0,6.514,0.035
18/05/2022,12:12:13,2.167,5.0,6.55,0.036
18/05/2022,12:13:12,2.112,5.0,6.586,0.036
18/05/2022,12:14:12,2.026,5.0,6.62,0.034
18/05/2022,12:15:20,1.964,5.0,6.654,0.034
18/05/2022,12:17:14,1.898,4.0,6.715,0.061
18/05/2022,12:18:12,1.951,4.0,6.746,0.031
18/05/2022,12:19:12,1.958,5.0,6.778,0.032
18/05/2022,12:20:11,1.872,4.0,6.808,0.03
18/05/2022,12:22:13,1.383,3.0,6.864,0.056
18/05/2022,12:24:13,2.124,5.0,6.922,0.058
18/05/2022,12:25:12,2.110,5.0,6.957,0.035
18/05/2022,12:26:13,2.157,5.0,6.992,0.035
18/05/2022,12:27:13,2.146,5.0,7.028,0.036
18/05/2022,12:28:11,2.110,5.0,7.063,0.035